パンスターズ彗星

C/2024 R4 ( PanSTARRS )

English version
Home page
Updated on November 26, 2024

---------------------------------------------------------------------

・ プロフィール

発見日 2024年9月11日
発見光度 21.2等
発見者 Pan-STARRS 1 telescope (Haleakala)

・ 軌道要素

Epoch 2024 Oct. 17.0 TT = JDT 2460600.5
T 2027 Oct. 26.62980 TT                                 Rudenko
q   4.4113599            (2000.0)            P               Q
z  -0.0006158      Peri.  108.96191     -0.33660818     -0.90999596
 +/-0.0000184      Node   345.92828     -0.38047178     +0.36659697
e   1.0027166      Incl.   95.34490     +0.86135716     -0.19368536
From 56 observations 2024 July 3-Nov. 2, mean residual 0".2.

・ 星図

・ 光度変化

        m1 = 6.5 + 5 logΔ + 10.0 log r

---------------------------------------------------------------------

軌道要素はM.P.E.C. 2024-V117に掲載されたものです。
星図はステラナビゲータ Ver.11 (アストロアーツ) で作成したものです。
光度グラフはComet for Windowsで作成したものです。

---------------------------------------------------------------------

Copyright(C) Seiichi Yoshida (comet@aerith.net). All rights reserved.